{"data":{"norad_id":53995,"intl_designator":"2022-125AH","name":"STARLINK-5097","alt_names":[],"object_type":"PAYLOAD","status":"ACTIVE","operator":null,"country":"US","launch_date":"2022-10-05","launch_site_code":"AFWTR","launch_vehicle":null,"mission":null,"orbit_class":"UNKNOWN","rcs_meters":null,"size_class":null,"mass_kg":null,"dimensions":null,"purposes":["comms"],"wikipedia_slug":null,"has_3d_model":false,"image_url":null,"decayed_at":null,"tle_current":{"epoch":"2026-05-24T22:26:57.355584Z","epoch_age_seconds":80703,"freshness":"FRESH","line1":"1 53995U 22125AH  26144.93538606  .00001667  00000+0  12286-3 0  9991","line2":"2 53995  53.2124 231.8011 0001560  89.6730 270.4441 15.08827509200965","mean_motion":15.08827509,"eccentricity":0.000156,"inclination_deg":53.2124,"raan_deg":231.8011,"arg_perigee_deg":89.673,"mean_anomaly_deg":270.4441,"bstar":0.00012286,"rev_number":20096,"period_min":95.438344768408,"perigee_km":538.7023739206,"apogee_km":540.8607645142,"semimajor_km":6917.9185692174,"source":"CELESTRAK","updated_at":"2026-05-25T13:38:17.622696Z"}}}